![](https://secure.gravatar.com/avatar/900f734c10632692418d1b47311b6af5.jpg?s=120&d=mm&r=g)
SB KEPS @ AMSAT $ORB19360.N 2Line Orbital Elements 19360.AMSAT
HR AMSAT ORBITAL ELEMENTS FOR AMATEUR SATELLITES IN NASA FORMAT FROM WA5QGD FORT WORTH,TX December 26, 2019 BID: ORB19360.N
DECODE 2-LINE ELSETS WITH THE FOLLOWING KEY: 1 AAAAAU 00 0 0 BBBBB.BBBBBBBB .CCCCCCCC 00000-0 00000-0 0 DDDZ 2 AAAAA EEE.EEEE FFF.FFFF GGGGGGG HHH.HHHH III.IIII JJ.JJJJJJJJKKKKKZ KEY: A-CATALOGNUM B-EPOCHTIME C-DECAY D-ELSETNUM E-INCLINATION F-RAAN G-ECCENTRICITY H-ARGPERIGEE I-MNANOM J-MNMOTION K-ORBITNUM Z-CHECKSUM
TO ALL RADIO AMATEURS BT
Reaktor Hello World 1 43743U 18096AA 19360.81018310 .00000926 00000-0 37597-4 0 9998 2 43743 97.4422 70.4311 0018811 26.0891 43.5025 15.27006558 59891 MinXSS-2 1 43758U 18099A 19360.44774430 -.00000138 00000-0 -72273-5 0 9996 2 43758 97.7274 70.0620 0016694 54.1058 306.1709 14.95539860 57940 AO-95 1 43770U 18099N 19360.74766031 .00000625 00000-0 62491-4 0 9990 2 43770 97.7272 69.9837 0015835 60.5291 299.7507 14.94879121 57966 RANGE-B 1 43772U 18099Q 19359.78372863 -.00000017 00000-0 37531-5 0 9994 2 43772 97.7332 69.3571 0015181 51.3718 308.8859 14.95026752 57811 RANGE-A 1 43773U 18099R 19360.73747546 .00000415 00000-0 43270-4 0 9993 2 43773 97.7216 69.7408 0014551 48.9651 311.2824 14.94884555 57951 MOVE-II 1 43780U 18099Y 19360.74097229 .00000716 00000-0 70231-4 0 9999 2 43780 97.7265 70.0872 0014655 59.1004 301.1656 14.95232531 57957 SNUSat 2 1 43782U 18099AA 19360.13817290 .00000466 00000-0 47671-4 0 9996 2 43782 97.7266 69.5320 0013749 50.8836 309.3604 14.95152637 57877 SnugLite 1 43784U 18099AC 19360.71967014 -.00000078 00000-0 -18355-5 0 9991 2 43784 97.7232 69.9814 0016201 55.3378 304.9367 14.95243368 57971 ITASat 1 1 43786U 18099AE 19360.71794537 -.00000172 00000-0 -10374-4 0 9998 2 43786 97.7285 70.2488 0016312 54.3225 305.9512 14.95233560 57972 EAGLET 1 1 43790U 18099AJ 19360.75399709 .00000597 00000-0 58902-4 0 9997 2 43790 97.7277 70.4617 0014814 59.5238 300.7443 14.95609926 57687 ESEO 1 43792U 18099AL 19360.75480233 .00000441 00000-0 44902-4 0 9995 2 43792 97.7254 70.3632 0014597 56.6544 303.6071 14.95556735 57741 CSIM 1 43793U 18099AM 19359.77362241 .00000060 00000-0 10569-4 0 9993 2 43793 97.7235 69.3026 0014114 57.4778 302.7805 14.95877585 57574 Astrocast 0.1 1 43798U 18099AS 19360.76379390 .00000292 00000-0 31308-4 0 9993 2 43798 97.7268 70.5389 0013431 41.4179 318.8058 14.95800072 57980 JO-97 1 43803U 18099AX 19360.75166107 .00000642 00000-0 63210-4 0 9995 2 43803 97.7246 70.1460 0016356 55.3577 304.9183 14.95388458 57977 Suomi 100 1 43804U 18099AY 19360.75150357 .00000642 00000-0 63266-4 0 9997 2 43804 97.7244 70.1403 0016434 55.4605 304.8164 14.95382858 57980 Al Farabi 2 1 43805U 18099AZ 19360.73795199 .00000571 00000-0 56695-4 0 9994 2 43805 97.7246 70.1690 0016319 55.5300 304.7460 14.95469524 57980 PWSat 2 1 43814U 18099BJ 19360.22133774 .00018074 00000-0 12687-2 0 9991 2 43814 97.7782 73.5701 0005525 85.6650 274.5202 15.05197790 57459 CHOMPTT 1 43855U 18104G 19360.36631835 .00000863 00000-0 35187-4 0 9998 2 43855 85.0364 290.3457 0017688 342.0752 17.9854 15.22672973 57039 ISAT 1 43879U 18111D 19360.68109011 .00000514 00000-0 50705-4 0 9999 2 43879 97.7105 265.8132 0014600 104.2019 256.0825 14.96113530 52500 UWE-4 1 43880U 18111E 19359.68589034 .00000627 00000-0 60434-4 0 9991 2 43880 097.7116 265.0137 0013802 107.9572 252.3155 14.96350980054350 Sparrow 1 43881U 18111F 19360.74447742 .00000391 00000-0 39532-4 0 9993 2 43881 97.7119 266.1027 0013821 103.5175 256.7588 14.96401510 52516 Lume 1 1 43908U 18111AJ 19359.88794138 .00000908 00000-0 39355-4 0 9997 2 43908 97.2790 259.8301 0022702 43.3198 316.9819 15.24682654 55425 FO-98 1 43933U 19003B 19360.84253456 .00000491 00000-0 24446-4 0 9999 2 43933 97.2579 51.9872 0019269 129.9291 345.2447 15.21870703 52128 FO-99 1 43937U 19003F 19360.79070637 .00001033 00000-0 45177-4 0 9992 2 43937 97.2539 52.7113 0025834 116.1487 309.7542 15.23975216 52189 Delphini 1 1 44030U 98067PW 19360.58337132 .00012029 00000-0 14837-3 0 9992 2 44030 51.6364 113.4273 0004307 143.3371 216.7917 15.60630900 51318 MYSat 1 1 44045U 18092F 19360.17696503 .00002229 00000-0 73926-4 0 9999 2 44045 51.6403 167.9094 0012589 55.3259 304.8872 15.35782736 48504 AstroCast 0.2 1 44083U 19018F 19360.73213443 .00000619 00000-0 30506-4 0 9998 2 44083 97.4455 58.9604 0015349 63.6153 296.6657 15.21572535 40969 AISTechSat 3 1 44103U 19018AB 19360.78830883 .00000591 00000-0 28193-4 0 9997 2 44103 97.4348 59.0842 0015120 78.8429 15.8561 15.22893676 41004 AISat 1 1 44104U 19018AC 19360.63292667 .00000686 00000-0 24524-4 0 9993 2 44104 97.4871 64.0306 0060202 109.3756 251.4006 15.30764865 41212 Raavana-1 1 44329U 98067QE 19360.74798593 .00007921 00000-0 12434-3 0 9999 2 44329 51.6400 122.8232 0006914 76.5339 283.6422 15.54657797 29951 Uguisu 1 44330U 98067QF 19360.62465380 .00007848 00000-0 12351-3 0 9999 2 44330 51.6397 123.4977 0006887 74.7408 285.4344 15.54604251 29913 NepaliSat-1 1 44331U 98067QG 19359.77955140 .00007468 00000-0 11757-3 0 9999 2 44331 51.6395 127.6054 0006948 74.5405 285.6353 15.54675861 29790 Prox-1 1 44339U 19036A 19360.01455656 .00000791 00000-0 13874-3 0 9996 2 44339 24.0018 129.3058 0011321 43.6454 316.4969 14.52781820 26736 OBJECT H 1 44346U 19036H 19360.89213096 .00512616 51336-4 54211-2 0 9995 2 44346 28.5276 73.8011 0252013 268.9451 88.2433 15.32720147 27752 OBJECT J 1 44347U 19036J 19359.90681534 .00042384 00000-0 61466-3 0 9991 2 44347 028.5353 079.6051 0346255 259.2780 096.7874 15.07628589027614 OBJECT K 1 44348U 19036K 19359.91181564 .00011359 00000-0 17271-3 0 9994 2 44348 028.5219 085.3359 0379681 250.1452 105.7827 14.99408917027559 Armadillo 1 44352U 19036P 19360.62948178 .00014743 00000-0 22671-3 0 9991 2 44352 28.5372 79.6705 0372494 259.0594 96.7883 15.00792588 27616 NO-104 1 44354U 19036R 19360.55032308 .00010887 00000-0 16331-3 0 9995 2 44354 28.5350 79.9358 0376718 258.2256 97.5846 15.00257167 27640 NO-103 1 44355U 19036S 19360.35203301 .00022439 00000-0 33579-3 0 9996 2 44355 28.5350 79.3118 0366414 259.2650 96.6491 15.02786997 27635 Oculus-ASR 1 44356U 19036T 19360.60600258 .00048881 00000-0 64354-3 0 9991 2 44356 28.5321 70.4895 0338996 273.3974 82.7904 15.11135073 27759 CP9 1 44360U 19036X 19360.20491335 .00030457 00000-0 39933-3 0 9991 2 44360 28.5207 75.8230 0361215 265.2977 90.6281 15.06694947 27538 Move-IIb 1 44398U 19038N 19360.64800764 .00001103 00000-0 67682-4 0 9991 2 44398 97.5139 319.3973 0025839 9.8298 350.3433 15.11936278 26318 SONATE 1 44400U 19038Q 19360.71853721 .00000441 00000-0 29479-4 0 9990 2 44400 97.5161 319.4837 0025582 7.9355 352.2275 15.11782622 26323 BeeSat 9 1 44412U 19038AC 19360.16992098 .00000859 00000-0 53504-4 0 9992 2 44412 97.5152 318.9783 0023408 15.7630 344.4323 15.12005108 25939 JAISAT-1 1 44419U 19038F 19359.84886281 .00000774 00000-0 48006-4 0 9995 2 44419 97.5153 318.7952 0022290 16.6734 343.5224 15.12489551 26205 LightSail-2 1 44420U 19036AC 19360.78207996 .00003278 00000-0 71185-3 0 9995 2 44420 24.0115 123.7438 0021570 19.4387 340.6946 14.53974989 24999 Taurus 1 1 44530U 19059C 19360.76769479 -.00000427 00000-0 -10848-3 0 9993 2 44530 98.5809 75.1536 0013845 317.7787 42.2322 14.45283332 15258 MO-106 1 44830U 19084G 19355.84908476 .00031130 00000-0 30180-3 0 9993 2 44830 97.0015 219.9019 0039984 196.5366 163.3885 15.65255295 2419 TRSI-Sat 1 44831U 19084H 19353.86690069 .00018606 00000-0 18398-3 0 9990 2 44831 96.9919 217.9463 0034695 203.9416 156.0319 15.65120419 2112 MO-105 1 44832U 19084J 19360.57797680 .00024461 00000-0 23433-3 0 9996 2 44832 97.0000 224.6103 0039583 176.1879 183.9692 15.65614292 3152 Duchifat 3 1 44854U 19089C 19360.83950074 .00000173 00000-0 20518-4 0 9998 2 44854 36.9680 44.2673 0007378 91.2164 268.9423 14.98935906 2238 OPS-SAT 1 44878U 19092F 19360.56701132 -.00000066 00000-0 00000 0 0 9998 2 44878 97.4615 181.8627 0013206 235.9321 124.0699 15.15166428 1208 FloripaSat 1 1 44885U 19093G 19360.80273899 .00000337 00000-0 49334-4 0 9996 2 44885 97.9772 72.8773 0013580 250.8806 109.0914 14.81944087 989 /EX